FW5837 Weather Reports


Display with metric or nautical units.
time (UTC)temp
F
wind
direction
speed
MPH
gust
MPH
rain 1hr
in
rain 24hr
in
rain mn
in
humidity
%
barometer
mb
20260507040530 40 51 3.0 12.0 0.00 0.71 0.00 95 1007.0
20260507040045 40 259 2.0 10.0 0.00 0.71 0.00 95 1007.0
20260507035530 40 281 4.0 13.0 0.00 0.71 0.71 95 1007.0
20260507035030 40 302 4.0 13.0 0.00 0.71 0.71 95 1007.3
20260507034557 40 275 4.0 13.0 0.01 0.71 0.71 95 1007.2
20260507034029 41 257 3.0 11.0 0.01 0.71 0.71 95 1007.2
20260507033529 41 266 2.0 11.0 0.01 0.71 0.71 95 1007.3
20260507033101 41 321 4.0 12.0 0.01 0.71 0.71 95 1007.2
20260507032529 41 261 6.0 12.0 0.01 0.71 0.71 95 1007.2
20260507032030 41 263 5.0 12.0 0.01 0.71 0.71 95 1007.5
20260507031543 41 263 2.0 7.0 0.01 0.71 0.71 95 1007.3
20260507031027 41 267 2.0 10.0 0.01 0.71 0.71 95 1007.1
20260507030527 41 248 3.0 10.0 0.01 0.71 0.71 95 1007.1
20260507030038 41 247 3.0 12.0 0.01 0.71 0.71 95 1007.2
20260507025531 41 261 3.0 12.0 0.01 0.71 0.71 95 1007.2
20260507025031 42 259 3.0 12.0 0.01 0.71 0.71 95 1007.2
20260507024545 42 288 3.0 12.0 0.01 0.70 0.70 95 1007.4
20260507024028 42 339 2.0 10.0 0.01 0.70 0.70 95 1007.1
20260507023528 42 257 3.0 11.0 0.01 0.70 0.70 95 1007.2
20260507023043 42 252 4.0 11.0 0.01 0.70 0.70 95 1007.0
20260507022528 42 292 4.0 10.0 0.01 0.70 0.70 95 1006.8
20260507022033 42 275 5.0 10.0 0.01 0.70 0.70 95 1007.0
20260507021544 42 255 3.0 12.0 0.02 0.70 0.70 95 1006.9
20260507021028 42 244 5.0 12.0 0.02 0.70 0.70 95 1006.9
20260507020529 42 318 4.0 11.0 0.02 0.70 0.70 95 1006.9
20260507020040 43 220 3.0 12.0 0.02 0.70 0.70 95 1007.1
20260507015529 43 254 4.0 12.0 0.02 0.70 0.70 95 1007.0
20260507015029 43 298 5.0 12.0 0.02 0.70 0.70 95 1007.1
20260507014538 43 263 2.0 13.0 0.01 0.69 0.69 95 1007.2
20260507014029 43 261 4.0 13.0 0.01 0.69 0.69 95 1007.1
20260507013528 44 270 4.0 9.0 0.02 0.69 0.69 95 1007.0
20260507013050 44 251 3.0 10.0 0.02 0.69 0.69 95 1007.0
20260507012528 44 280 3.0 10.0 0.02 0.69 0.69 95 1006.7
20260507012029 44 282 3.0 10.0 0.01 0.68 0.68 95 1006.8
20260507011547 44 256 3.0 9.0 0.01 0.68 0.68 95 1006.9
20260507011028 44 263 3.0 8.0 0.01 0.68 0.68 95 1006.7
20260507010533 45 257 4.0 8.0 0.01 0.68 0.68 95 1006.7
20260507010050 45 299 3.0 10.0 0.01 0.68 0.68 95 1006.6
20260507005530 45 265 3.0 12.0 0.01 0.69 0.68 95 1006.6
20260507005029 45 298 5.0 12.0 0.01 0.69 0.68 95 1006.6
20260507004544 46 251 3.0 15.0 0.01 0.69 0.68 95 1006.5
20260507004030 46 224 4.0 15.0 0.01 0.69 0.68 95 1006.3
20260507003530 46 232 5.0 15.0 0.00 0.68 0.67 95 1006.1
20260507003042 46 257 5.0 15.0 0.00 0.68 0.67 96 1006.2
20260507002529 47 265 7.0 18.0 0.00 0.68 0.67 96 1005.9
20260507002029 47 270 8.0 18.0 0.00 0.68 0.67 96 1005.8
20260507001609 48 252 8.0 18.0 0.00 0.68 0.67 96 1005.7
20260507001028 48 248 7.0 15.0 0.00 0.68 0.67 96 1005.9
20260507000529 48 229 7.0 15.0 0.00 0.68 0.67 96 1005.9
20260507000047 49 238 6.0 15.0 0.00 0.68 0.67 96 1005.6
20260506235531 49 234 5.0 10.0 0.00 0.68 0.67 96 1005.6
20260506235029 49 267 5.0 10.0 0.00 0.68 0.67 96 1005.5
20260506234556 49 265 5.0 10.0 0.00 0.68 0.67 96 1005.6
20260506234029 49 228 5.0 16.0 0.00 0.68 0.67 96 1005.5
20260506233529 50 254 7.0 16.0 0.01 0.68 0.67 95 1005.5
20260506233045 51 260 6.0 12.0 0.03 0.68 0.67 95 1005.5
20260506232530 51 198 5.0 12.0 0.04 0.68 0.67 96 1005.5
20260506232032 52 276 5.0 11.0 0.04 0.68 0.67 96 1005.4
20260506231543 53 244 5.0 19.0 0.04 0.68 0.67 96 1005.2
20260506231029 53 262 7.0 19.0 0.04 0.68 0.67 96 1005.1
20260506230528 53 269 6.0 17.0 0.04 0.68 0.67 96 1005.0
20260506230041 53 247 7.0 17.0 0.04 0.68 0.67 96 1004.9
20260506225531 54 234 5.0 10.0 0.04 0.69 0.67 96 1004.8
20260506225029 54 225 3.0 8.0 0.04 0.69 0.67 96 1004.8
20260506224547 54 256 3.0 8.0 0.04 0.69 0.67 96 1004.9
20260506224028 54 240 2.0 7.0 0.04 0.69 0.67 96 1004.7
20260506223528 54 241 3.0 11.0 0.03 0.68 0.66 96 1004.8
20260506223044 54 250 4.0 11.0 0.01 0.66 0.64 96 1004.8
20260506222529 54 209 6.0 11.0 0.01 0.65 0.63 96 1004.7
20260506222029 55 216 4.0 11.0 0.01 0.65 0.63 96 1004.7
20260506221546 55 247 6.0 11.0 0.02 0.65 0.63 96 1004.7
20260506221028 55 234 4.0 21.0 0.02 0.65 0.63 95 1004.7
20260506220528 55 195 4.0 21.0 0.03 0.65 0.63 96 1004.8
20260506215528 55 196 7.0 17.0 0.05 0.65 0.63 96 1004.7
20260506215028 54 200 7.0 15.0 0.07 0.65 0.63 96 1004.6
20260506214543 54 229 5.0 13.0 0.08 0.65 0.63 96 1004.7
20260506214030 54 224 5.0 13.0 0.08 0.65 0.63 96 1004.7
20260506213528 54 204 4.0 18.0 0.10 0.65 0.63 96 1004.6
20260506213040 54 205 4.0 18.0 0.11 0.65 0.63 96 1004.6
20260506212529 54 227 6.0 18.0 0.10 0.64 0.62 96 1004.6
20260506212030 54 255 6.0 13.0 0.11 0.64 0.62 96 1004.5
20260506211550 54 191 5.0 14.0 0.10 0.63 0.61 96 1004.5
20260506211029 54 184 6.0 14.0 0.11 0.63 0.61 96 1004.7
20260506210530 54 209 5.0 14.0 0.10 0.62 0.60 96 1004.8
20260506210044 55 236 3.0 8.0 0.10 0.61 0.58 96 1004.8
20260506205533 55 254 4.0 9.0 0.08 0.58 0.57 96 1004.7
20260506205033 55 228 3.0 14.0 0.07 0.58 0.56 96 1004.8
20260506204544 55 236 4.0 17.0 0.07 0.57 0.55 96 1004.8
20260506204036 55 188 6.0 17.0 0.06 0.56 0.54 96 1004.8
20260506203533 55 335 7.0 17.0 0.05 0.55 0.52 96 1004.9
20260506203043 55 183 5.0 12.0 0.04 0.54 0.52 96 1004.9
20260506202533 55 240 4.0 15.0 0.04 0.54 0.52 96 1004.9
20260506202032 55 340 7.0 15.0 0.04 0.52 0.51 96 1004.8
20260506201543 55 201 5.0 17.0 0.04 0.52 0.51 96 1005.0
20260506201033 55 169 5.0 27.0 0.03 0.52 0.50 97 1005.0
20260506200533 55 198 6.0 27.0 0.04 0.52 0.50 97 1005.0
20260506200047 55 235 7.0 18.0 0.04 0.51 0.49 96 1005.0
20260506195532 54 220 5.0 19.0 0.05 0.51 0.49 96 1005.1
20260506195029 54 248 8.0 19.0 0.05 0.51 0.49 96 1005.2
20260506194551 54 219 6.0 18.0 0.05 0.50 0.48 96 1005.3
20260506194032 54 195 6.0 20.0 0.06 0.50 0.48 96 1005.4
20260506193529 54 263 7.0 20.0 0.07 0.50 0.48 96 1005.3
20260506193050 54 180 6.0 20.0 0.07 0.50 0.48 96 1005.3
20260506192531 54 201 7.0 19.0 0.08 0.50 0.48 96 1005.4
20260506192034 54 165 8.0 18.0 0.07 0.49 0.47 96 1005.5
20260506191544 54 124 5.0 16.0 0.08 0.49 0.47 96 1005.5
20260506191033 54 235 6.0 20.0 0.09 0.49 0.47 96 1005.5
20260506190530 54 167 8.0 20.0 0.09 0.48 0.46 96 1005.6
20260506190044 54 189 7.0 18.0 0.09 0.47 0.45 96 1005.6
20260506185532 54 187 8.0 20.0 0.11 0.46 0.44 96 1005.7
20260506185034 54 204 6.0 20.0 0.12 0.45 0.43 96 1005.7
20260506184545 54 182 7.0 18.0 0.14 0.45 0.43 96 1005.8
20260506184033 54 174 7.0 17.0 0.15 0.44 0.42 96 1005.7
20260506183534 54 192 7.0 17.0 0.15 0.43 0.41 96 1005.6
20260506183041 54 196 8.0 18.0 0.16 0.43 0.41 96 1005.9
20260506182532 54 145 6.0 18.0 0.17 0.42 0.40 96 1005.7
20260506182032 54 111 5.0 15.0 0.18 0.42 0.40 96 1005.8
20260506181559 54 198 5.0 12.0 0.18 0.41 0.39 96 1005.9
20260506181032 54 261 5.0 12.0 0.18 0.40 0.38 96 1006.1
20260506180534 54 152 6.0 16.0 0.18 0.39 0.37 96 1006.3
20260506180049 54 150 5.0 16.0 0.18 0.38 0.36 96 1006.3
20260506175550 54 144 5.0 13.0 0.15 0.34 0.32 96 1006.5
20260506175032 54 155 5.0 13.0 0.15 0.33 0.31 96 1006.4
20260506174545 54 134 4.0 12.0 0.14 0.31 0.29 95 1006.5
20260506174035 54 144 4.0 14.0 0.13 0.29 0.27 95 1006.4
20260506173532 54 130 5.0 14.0 0.14 0.28 0.26 95 1006.6
20260506173059 54 231 6.0 16.0 0.13 0.26 0.24 95 1006.7
20260506172533 54 182 7.0 18.0 0.13 0.25 0.23 95 1006.8
20260506172032 54 150 7.0 18.0 0.13 0.24 0.22 95 1006.9
20260506171551 54 155 6.0 17.0 0.13 0.23 0.21 95 1007.0
20260506171032 54 199 9.0 17.0 0.13 0.22 0.20 95 1007.1
20260506170532 54 142 8.0 17.0 0.12 0.21 0.19 95 1007.1
20260506170045 54 167 6.0 17.0 0.12 0.20 0.18 95 1007.2
20260506165532 54 159 7.0 17.0 0.11 0.19 0.17 95 1007.2
20260506165033 54 182 8.0 16.0 0.11 0.18 0.16 95 1007.3
20260506164545 54 187 6.0 12.0 0.11 0.17 0.15 95 1007.3
20260506164030 54 152 4.0 16.0 0.10 0.16 0.14 95 1007.2
20260506163533 55 211 8.0 16.0 0.08 0.14 0.12 95 1007.2
20260506163043 55 165 7.0 13.0 0.08 0.13 0.11 95 1007.3
20260506162534 55 156 7.0 14.0 0.07 0.12 0.10 94 1007.2
20260506162033 55 134 7.0 16.0 0.07 0.11 0.09 94 1007.3
20260506161549 55 147 7.0 16.0 0.06 0.10 0.08 94 1007.3
20260506161031 55 190 7.0 14.0 0.06 0.09 0.07 94 1007.3
20260506160533 55 84 5.0 15.0 0.05 0.08 0.06 94 1007.3
20260506160058 55 161 5.0 16.0 0.05 0.08 0.06 94 1007.3
20260506155531 55 174 4.0 16.0 0.06 0.08 0.06 94 1007.4
20260506155032 55 166 5.0 16.0 0.05 0.07 0.05 94 1007.5
20260506154548 55 142 5.0 16.0 0.04 0.06 0.04 93 1007.5
20260506154031 55 184 5.0 11.0 0.04 0.06 0.04 93 1007.5
20260506153532 55 250 4.0 11.0 0.04 0.06 0.04 93 1007.7
20260506153046 55 187 5.0 12.0 0.03 0.05 0.03 92 1007.7
20260506152532 55 159 6.0 12.0 0.03 0.05 0.03 92 1007.6
20260506152032 55 238 5.0 17.0 0.02 0.04 0.02 92 1007.8
20260506151546 56 175 3.0 17.0 0.02 0.04 0.02 92 1008.1
20260506151031 56 218 3.0 9.0 0.01 0.03 0.01 91 1008.2
20260506150532 56 201 3.0 10.0 0.01 0.03 0.01 91 1008.1
20260506150049 56 231 5.0 15.0 0.00 0.02 0.00 90 1008.2
20260506145532 56 223 6.0 20.0 0.00 0.02 0.00 89 1008.1
20260506145031 56 199 6.0 20.0 0.00 0.02 0.00 88 1008.5
20260506144548 57 237 6.0 14.0 0.00 0.02 0.00 87 1008.4
20260506144033 57 212 5.0 14.0 0.00 0.02 0.00 85 1008.4
20260506143531 57 219 5.0 14.0 0.00 0.02 0.00 85 1008.5
20260506143044 57 213 6.0 14.0 0.00 0.02 0.00 84 1008.3
20260506142528 57 206 3.0 10.0 0.00 0.02 0.00 84 1008.5
20260506142028 57 219 3.0 11.0 0.00 0.02 0.00 84 1008.4
20260506141543 57 243 4.0 12.0 0.00 0.02 0.00 84 1008.4
20260506141032 57 240 4.0 12.0 0.00 0.02 0.00 84 1008.2
20260506140531 58 195 5.0 12.0 0.00 0.02 0.00 83 1008.1
20260506140039 58 255 6.0 11.0 0.00 0.02 0.00 84 1008.1
20260506135527 58 194 4.0 11.0 0.00 0.02 0.00 84 1008.1
20260506135031 57 170 4.0 11.0 0.00 0.02 0.00 84 1008.1
20260506134548 57 185 3.0 11.0 0.00 0.02 0.00 86 1007.9
20260506134033 57 199 3.0 11.0 0.00 0.02 0.00 86 1007.8
20260506133534 56 155 6.0 17.0 0.00 0.02 0.00 86 1007.9
20260506133045 56 205 6.0 17.0 0.00 0.02 0.00 87 1007.9
20260506132531 56 185 5.0 15.0 0.00 0.02 0.00 87 1008.0
20260506132035 55 205 7.0 15.0 0.00 0.02 0.00 88 1008.1
20260506131557 55 180 5.0 12.0 0.00 0.02 0.00 89 1008.0
20260506131031 55 233 4.0 19.0 0.00 0.02 0.00 89 1008.1
20260506130534 54 240 4.0 19.0 0.00 0.02 0.00 89 1008.2
20260506130053 54 126 5.0 11.0 0.00 0.02 0.00 90 1008.3
20260506125533 54 188 4.0 11.0 0.00 0.02 0.00 91 1008.2
20260506125031 53 143 3.0 9.0 0.00 0.02 0.00 91 1008.5
20260506124546 53 217 3.0 9.0 0.00 0.02 0.00 91 1008.6
20260506124031 52 223 3.0 11.0 0.00 0.02 0.00 91 1008.5
20260506123531 52 197 4.0 11.0 0.00 0.02 0.00 92 1008.6
20260506123041 52 197 3.0 7.0 0.00 0.02 0.00 93 1008.5
20260506122531 51 173 3.0 9.0 0.00 0.02 0.00 93 1008.5
20260506122031 51 165 2.0 10.0 0.00 0.02 0.00 93 1008.6
20260506121545 51 146 3.0 10.0 0.00 0.02 0.00 93 1008.5
20260506121031 51 211 3.0 10.0 0.00 0.02 0.00 93 1008.3
20260506120536 51 158 3.0 10.0 0.00 0.02 0.00 93 1008.5
20260506120044 51 167 4.0 8.0 0.00 0.02 0.00 93 1008.4
20260506115534 51 140 3.0 7.0 0.00 0.02 0.00 93 1008.2
20260506115032 51 86 3.0 8.0 0.00 0.02 0.00 93 1007.8
20260506114543 50 181 2.0 8.0 0.00 0.02 0.00 93 1007.8
20260506114031 50 209 2.0 13.0 0.00 0.02 0.00 93 1008.2
20260506113533 50 196 3.0 13.0 0.00 0.02 0.00 93 1008.3
20260506113043 50 121 5.0 13.0 0.00 0.02 0.00 93 1008.4
20260506112531 50 142 3.0 12.0 0.00 0.02 0.00 93 1008.5
20260506112031 50 154 5.0 14.0 0.00 0.02 0.00 93 1008.5
20260506111543 50 147 5.0 14.0 0.00 0.02 0.00 92 1008.6
20260506111035 50 186 4.0 12.0 0.00 0.02 0.00 92 1008.5
20260506110532 50 132 5.0 12.0 0.00 0.02 0.00 92 1008.4
20260506110047 50 167 5.0 12.0 0.00 0.02 0.00 92 1008.4
20260506105528 50 146 4.0 12.0 0.00 0.02 0.00 92 1008.3
20260506105030 50 159 3.0 12.0 0.00 0.02 0.00 92 1008.3
20260506104549 50 118 4.0 12.0 0.00 0.02 0.00 92 1008.4
20260506104030 50 126 4.0 10.0 0.00 0.02 0.00 91 1008.4
20260506103530 50 126 4.0 10.0 0.00 0.02 0.00 91 1008.2
20260506103045 50 130 4.0 10.0 0.00 0.02 0.00 90 1008.3
20260506102530 51 126 4.0 9.0 0.00 0.02 0.00 90 1008.3
20260506102030 51 178 3.0 8.0 0.00 0.02 0.00 90 1008.2
20260506101546 51 57 3.0 9.0 0.00 0.02 0.00 90 1008.2
20260506101031 52 105 2.0 9.0 0.00 0.02 0.00 90 1008.3
20260506100534 52 127 3.0 9.0 0.00 0.02 0.00 90 1008.2
20260506100044 52 127 5.0 9.0 0.00 0.02 0.00 89 1008.2
20260506095529 52 140 3.0 7.0 0.00 0.02 0.00 89 1008.2
20260506095029 52 140 3.0 7.0 0.00 0.02 0.00 89 1008.1
20260506094556 52 113 3.0 7.0 0.00 0.02 0.00 89 1008.1
20260506094033 53 102 2.0 9.0 0.00 0.02 0.00 89 1008.3
20260506093529 53 175 2.0 9.0 0.00 0.02 0.00 88 1008.4
20260506093046 53 119 3.0 9.0 0.00 0.02 0.00 88 1008.2
20260506092529 53 121 4.0 9.0 0.00 0.02 0.00 88 1008.3
20260506092030 53 121 4.0 9.0 0.00 0.02 0.00 87 1008.3
20260506091548 54 165 3.0 9.0 0.00 0.02 0.00 87 1008.5
20260506091032 54 140 3.0 9.0 0.00 0.02 0.00 86 1008.5
20260506090534 54 119 3.0 10.0 0.00 0.02 0.00 86 1008.4
20260506090044 54 132 2.0 10.0 0.00 0.02 0.00 86 1008.5
20260506085529 54 150 4.0 10.0 0.00 0.02 0.00 86 1008.5
20260506085028 54 215 5.0 9.0 0.00 0.02 0.00 86 1008.5
20260506084545 54 157 4.0 9.0 0.00 0.02 0.00 87 1008.4
20260506084030 54 163 4.0 8.0 0.00 0.02 0.00 88 1008.4
20260506083530 54 200 4.0 10.0 0.00 0.02 0.00 88 1008.5
20260506083042 54 209 4.0 10.0 0.00 0.02 0.00 89 1008.5
20260506082532 54 130 4.0 10.0 0.00 0.02 0.00 89 1008.6
20260506082032 54 171 3.0 8.0 0.00 0.02 0.00 89 1008.7
20260506081544 53 142 3.0 7.0 0.00 0.02 0.00 90 1008.7
20260506081031 53 205 2.0 7.0 0.00 0.02 0.00 91 1008.7
20260506080529 53 207 4.0 7.0 0.00 0.02 0.00 91 1008.8
20260506073047 53 99 3.0 7.0 0.00 0.02 0.00 90 1009.0
20260506072534 54 163 2.0 4.0 0.00 0.02 0.00 90 1009.0
20260506072032 54 0 1.0 5.0 0.00 0.02 0.00 89 1009.0
20260506071547 54 113 1.0 5.0 0.00 0.02 0.00 89 1009.1
20260506071029 54 113 1.0 5.0 0.00 0.02 0.00 89 1009.1
20260506070529 54 0 0.0 0.0 0.00 0.02 0.00 88 1009.2
20260506062029 54 235 2.0 7.0 0.00 0.02 0.00 88 1009.0
20260506061545 55 252 2.0 7.0 0.00 0.02 0.00 88 1008.9
20260506061031 55 254 2.0 6.0 0.00 0.02 0.00 87 1009.0
20260506060531 55 263 2.0 8.0 0.00 0.02 0.00 87 1008.9
20260506051030 57 221 2.0 8.0 0.00 0.02 0.00 82 1009.4
20260506050531 57 221 2.0 8.0 0.00 0.02 0.00 82 1009.4
20260506045031 57 246 2.0 10.0 0.00 0.02 0.00 81 1009.6
20260506044549 57 200 3.0 10.0 0.00 0.02 0.00 81 1009.5
20260506044032 58 236 4.0 11.0 0.00 0.02 0.00 80 1009.4
20260506043530 58 227 4.0 11.0 0.00 0.02 0.00 80 1009.5
20260506043043 58 234 5.0 11.0 0.00 0.02 0.00 80 1009.4
20260506042532 58 236 3.0 14.0 0.00 0.02 0.00 79 1009.3
20260506042031 58 194 3.0 14.0 0.00 0.02 0.00 79 1009.3
20260506041543 58 225 3.0 10.0 0.00 0.02 0.00 78 1009.3
20260506041032 58 189 4.0 10.0 0.00 0.02 0.00 78 1009.5